Location: Chiroubles
(46.1812°N, 4.6660°E)
Time: 18:06:38
(UTC+00:00)

COSMOS 2487 - Pass Details

Date: 15 August 2020
Orbit: 439 x 443 km, 74.7° (Epoch: 23 September)

Event Time Altitude Azimuth Distance (km) Brightness Sun altitude
Exits shadow 22:11:42 28° 353° (N) 864 4.4 -26.5°
Drops below altitude 10° 22:13:35 10° 10° (N) 1,564 5.8 -26.7°
Sets 22:15:43 0° 16° (NNE) 2,439 6.8 -26.8°
